Regional Weather Roundup
Issued by NWS

Home | Current Version | Previous Version | Text Only | Print | Product List | Glossary On
Versions: 1 2 3 4 5 6 7 8 9 10 11 12 13 14 15 16 17 18 19 20 21 22 23 24 25 26 27 28 29 30 31 32 33 34 35 36 37 38 39 40 41 42 43 44 45 46 47 48 49 50
000
ASUS43 KMKX 300411
RWRWI

WISCONSIN REGIONAL WEATHER ROUNDUP
NATIONAL WEATHER SERVICE MILWAUKEE/SULLIVAN WI
1100 PM CDT WED OCT 29 2014

NOTE: "FAIR" INDICATES FEW OR NO CLOUDS BELOW 12,000 FEET WITH NO
SIGNIFICANT WEATHER AND/OR OBSTRUCTIONS TO VISIBILITY.

WIZ001-002-006>008-014>016-023>028-300500-
NORTHWEST WISCONSIN

CITY           SKY/WX    TMP DP  RH WIND       PRES   REMARKS
SUPERIOR ARPT  CLOUDY    39  33  80 W6        30.09R WCI  35
ASHLAND        CLOUDY    40  33  76 W6        30.09S
HAYWARD        CLOUDY    39  31  72 SW3       30.08S
SIREN          CLOUDY    38  32  78 CALM      30.09S
CUMBERLAND     MOCLDY    32  30  93 CALM      30.09R
RICE LAKE      MOCLDY    33  30  88 CALM      30.11R
CHETEK         MOCLDY    32  31  95 CALM      30.10S
LADYSMITH      CLOUDY    40  33  76 W5        30.10F
EAU CLAIRE     FAIR      35  31  85 W3        30.10S
MENOMONIE      MOCLDY    36  32  87 CALM      30.11S
NEW RICHMOND   MOCLDY    32  32  99 CALM      30.09S
OSCEOLA        CLOUDY    35  32  90 CALM      30.12S
$$

WIZ003>005-009-010-017-018-300500-
NORTH CENTRAL WISCONSIN

CITY           SKY/WX    TMP DP  RH WIND       PRES   REMARKS
MANITOWISH WTR CLOUDY    36  32  87 W5        30.06F WCI  32
ARBOR VITAE    CLOUDY    39  33  79 SW5       30.07S
WOODRUFF       CLOUDY    39  33  79 SW5       30.07S
RHINELANDER    CLOUDY    38  31  76 W5        30.08R WCI  34
EAGLE RIVER    CLOUDY    38  31  75 CALM      30.06S
LAND O LAKES   CLOUDY    38  34  84 CALM      30.06S
PHILLIPS       CLOUDY    37  32  82 SW5       30.08S WCI  33
TOMAHAWK       CLOUDY    37  31  79 CALM      30.09R
MEDFORD        PTCLDY    35  31  87 CALM      30.08S
MERRILL        CLEAR     34  32  91 W3        30.08F
$$

WIZ029-030-035-036-043>047-300500-
CENTRAL WISCONSIN

CITY           SKY/WX    TMP DP  RH WIND       PRES   REMARKS
WAUSAU         CLEAR     35  31  85 CALM      30.08S
MOSINEE        CLEAR     34  32  93 NW5       30.10S WCI  30
MARSHFIELD     PTCLDY    32  30  92 CALM      30.09S
STEVENS POINT  CLEAR     28  27  97 CALM      30.11S
WAUPACA        PTCLDY    34  32  92 CALM      30.12S
WAUTOMA        CLEAR     29  28  96 CALM      30.12S
WISC RAPIDS    PTCLDY    31  28  89 CALM      30.12R
CAMP DOUGLAS   MOCLDY    30  30 100 CALM      30.12R
$$

WIZ011>013-019>022-031-037>040-048>050-300500-
NORTHEAST WISCONSIN

CITY           SKY/WX    TMP DP  RH WIND       PRES   REMARKS
ANTIGO         PTCLDY    33  32  96 SW3       30.08S
SHAWANO        CLOUDY    42  35  77 CALM      30.11S
OCONTO         CLOUDY    43  35  72 NW3       30.10S
STURGEON BAY   CLOUDY    45  34  65 NW8       30.09S
GREEN BAY      CLOUDY    44  36  73 W6        30.11R
MANITOWOC      CLOUDY    45  37  73 W6        30.11R
APPLETON       PTCLDY    37  30  75 W6        30.11R WCI  33
CLINTONVILLE   CLOUDY    41  34  75 W3        30.11R
OSHKOSH        CLEAR     37  32  82 SW5       30.11R WCI  33
$$

WIZ032>034-041-042-053>061-300500-
SOUTHWEST WISCONSIN

CITY           SKY/WX    TMP DP  RH WIND       PRES   REMARKS
LA CROSSE      PTCLDY    37  32  82 SE5       30.12S WCI  33
SPARTA         MOCLDY    29  28  96 CALM      30.12F
VIROQUA        PTCLDY    36  32  87 CALM      30.10F
BOSCOBEL       PTCLDY    32  29  88 CALM      30.14S
PRAIRIE DU CHI PTCLDY    34  30  87 CALM      30.13F
PLATTEVILLE    CLEAR     37  31  81 S3        30.14S
$$

WIZ056-057-062-063-064-067-068-300500-
SOUTH CENTRAL WISCONSIN

CITY           SKY/WX    TMP DP  RH WIND       PRES   REMARKS
REEDSBURG      CLEAR     31  30  96 CALM      30.12S
BARABOO/DELLS  CLEAR     32  29  89 S3        30.11S
LONE ROCK      CLEAR     34  27  75 CALM      30.14R
MINERAL POINT  CLEAR     37  32  81 CALM      30.12S
MADISON        CLEAR     33  30  88 CALM      30.13R
MIDDLETON      CLEAR     32  32  99 CALM      30.13S
WATERTOWN      CLEAR     31  29  94 CALM      30.12R
MONROE         CLEAR     37  32  81 W7        30.12S WCI  32
JANESVILLE     CLEAR     34  30  86 CALM      30.13R
$$

WIZ051-052-058>065-066-070>072-300500-
SOUTHEAST WISCONSIN

CITY           SKY/WX    TMP DP  RH WIND       PRES   REMARKS
MILWAUKEE      CLEAR     37  30  75 CALM      30.12F
WAUKESHA       CLEAR     32  30  93 CALM      30.13R
MILWAUKEE/TIMM CLEAR     34  30  86 CALM      30.13R
RACINE         CLEAR     39  33  79 CALM      30.13F
BURLINGTON     CLEAR     29  28  96 SW3       30.12S
KENOSHA        CLEAR     35  31  85 SW3       30.12F
FOND DU LAC    CLEAR     32  29  88 SW3       30.12R
SHEBOYGAN      CLEAR     39  33  79 CALM      30.11S
WEST BEND      CLEAR     32  32 100 CALM      30.11S
JUNEAU         CLEAR     34  31  88 CALM      30.13R
$$

LSZ147-162-300500-
LAKE SUPERIOR

STATION/POSITION TIME  TEMP    WIND        PRES    WAVE
                       AIR SEA DIR/SP/G            HT/PER
                 (UTC) (F)     (DEG/KT/KT) (MB)    (FT/S)
W MID LAKE BUOY  0350   44 45  260/  6/  8 1018.1S   1/ 4
DEVILS ISLAND    0400   43     240/ 16/ 17 1018.7R
PORT WING        0340   41     220/  6/  8 1018.6S
SAXON HARBOR     0300   42      CALM  /  3 1018.6S
$$

LMZ867-665-643>646-300500-
LAKE MICHIGAN

STATION/POSITION TIME  TEMP    WIND        PRES    WAVE
                       AIR SEA DIR/SP/G            HT/PER
                 (UTC) (F)     (DEG/KT/KT) (MB)    (FT/S)
CHAMBERS ISLAND  0300   46     310/  9/ 13 1018.6R
N MID LAKE BUOY  0350   44 51  360/  8/ 10 1019.3R   1/ 4
NORTHPORT PIER   0300   44      30/  6/  8 1019.0R
KEWAUNEE LAKESHO 0300   46     250/  5/  7 1018.0R
SHEBOYGAN LAKESH 0400   45 50  270/  3/  4 1020.4R
PORT WASHINGTON  0340   40     270/  3/  4 1020.7R
ATWATER BUOY     0400   46     270/  2/  2 1020.9F
MILWAUKEE LAKESH 0300   46     350/  2/  3   N/A
S MID LAKE BUOY  0350   48 53  270/  6/  8 1020.3F
KENOSHA   LAKESH 0400   42     250/  5/  7 1020.0S
$$

TC  - TEMPERATURE IN CELSIUS
VSB - VISIBILITY IN STATUTE MILES
WCI - WIND CHILL INDEX
HX  - HEAT INDEX




USA.gov is the U.S. government's official web portal to all federal, state and local government web resources and services.